Regional Weather Roundup
Issued by NWS

Home | Current Version | Previous Version | Graphics & Text | Print | Product List | Glossary On
Versions: 1 2 3 4 5 6 7 8 9 10 11 12 13 14 15 16 17 18 19 20 21 22 23 24 25 26 27 28 29 30 31 32 33 34 35 36 37 38 39 40 41 42 43 44 45 46 47 48 49 50
000
ASUS43 KFSD 022210
RWRSD

WEATHER ROUNDUP FOR SOUTH DAKOTA
NATIONAL WEATHER SERVICE SIOUX FALLS SD
400 PM CST MON MAR 02 2015

NOTE: "FAIR" INDICATES FEW OR NO CLOUDS BELOW 12,000 FEET WITH NO
SIGNIFICANT WEATHER AND/OR OBSTRUCTIONS TO VISIBILITY.


SDZ001>005-009-010-012>017-022300-
NORTHWEST AND NORTH CENTRAL SOUTH DAKOTA

CITY           SKY/WX    TMP DP  RH WIND       PRES   REMARKS
BUFFALO          N/A     44  18  35 SW7       29.67F
FAITH            N/A     48  18  30 SW9       29.74F
MOBRIDGE       MOSUNNY   46  22  38 S16G24    29.77F
$$

SDZ012>016-024>037-041>051-057-063-072>074-022300-
SOUTHWEST AND SOUTH CENTRAL SOUTH DAKOTA

CITY           SKY/WX    TMP DP  RH WIND       PRES   REMARKS
RAPID CTY ARPT PTSUNNY   47  24  40 S13       29.71F
PIERRE         MOSUNNY   47  15  27 S28G35    29.83F
CUSTER         PTSUNNY   39  21  48 VRB5      29.69F
ELLSWORTH AFB  PTSUNNY   44  28  53 N10       29.70F
PHILIP         CLOUDY    50  15  24 S18       29.77F
PINE RIDGE     CLOUDY    42  22  44 S15       29.76F
SPEARFISH      FAIR      41  21  45 CALM      29.73F
WINNER         FAIR      43  10  26 S24G31    29.89F
$$

SDZ004>011-016>023-039-040-022300-
NORTHEAST SOUTH DAKOTA

CITY           SKY/WX    TMP DP  RH WIND       PRES   REMARKS
ABERDEEN       PTSUNNY   35  20  54 S28G35    29.98F WCI  22
WATERTOWN      CLOUDY    28  18  66 S25G31    30.02F WCI  13
SISSETON         N/A     30  17  58 S25G32    30.03F WCI  16
$$

SDZ017-020-022-023-036>040-048>070-022300-
SOUTHEAST SOUTH DAKOTA

CITY           SKY/WX    TMP DP  RH WIND       PRES   REMARKS
SIOUX FALLS    CLOUDY    30  17  58 SE14G25   30.11F WCI  19
HURON          CLOUDY    34  17  50 SE15G28   30.00F WCI  24
CHAMBERLAIN    MOSUNNY   42  14  31 S25G33    29.92F
MITCHELL       CLOUDY    37  18  46 S21G31    30.03F
YANKTON        CLOUDY    37  18  44 SE14G21   30.09F
$$

ABBREVIATIONS USED IN REMARKS
   TC - TEMPERATURE IN CELSIUS
  WCI - WIND CHILL INDEX
   HX - HEAT INDEX
  VSB - VISIBILITY



USA.gov is the U.S. government's official web portal to all federal, state and local government web resources and services.